Location: La Treille
(43.3120°N, 5.5127°E)
Time: 19:55:07
(UTC+00:00)

Daily predictions for brighter satellites

Satellite Brightness Start Highest point End
(mag) Time Altitude Azimuth Time Altitude Azimuth Time Altitude Azimuth
Meteor 2-2 Rocket 4.4 16:28:22 10° S 16:34:15 62° E 16:40:04 10° NNE
Cosmos 1844 Rocket 4.5 16:30:18 10° NW 16:35:30 38° WSW 16:40:40 10° S
Cosmos 841 Rocket 3.8 16:31:03 10° SSW 16:36:17 73° WNW 16:41:31 10° NNE
Cosmos 1980 4.3 16:32:07 10° S 16:37:20 39° ESE 16:42:35 10° NE
SJ 16-02 4.4 16:34:46 10° NW 16:37:37 17° W 16:40:26 10° SW
CORIOLIS 4.5 16:32:56 10° SE 16:38:01 44° ENE 16:43:08 10° N
COSMO-SKYMED 1 4.3 16:36:10 10° NE 16:38:37 15° E 16:41:03 10° SE
Envisat 3.0 16:33:40 10° SSE 16:38:45 81° ENE 16:43:51 10° N
Cosmos 1743 Rocket 3.7 16:34:54 10° N 16:39:18 53° ENE 16:43:38 10° SSE
H-2A R/B 2.5 16:37:17 10° SSE 16:41:41 83° ENE 16:45:57 10° NNW
H-2A R/B 3.4 16:39:29 10° S 16:43:13 61° W 16:47:03 10° NNW
Cosmos 1408 Rocket 4.0 16:41:25 10° NNW 16:45:47 68° W 16:50:05 10° S
Okean O Rocket 1.8 16:41:56 10° SE 16:46:07 49° ENE 16:50:21 10° N
Nadezhda 1 Rocket 4.1 16:40:00 10° S 16:46:09 58° E 16:52:24 10° NNE
Cosmos 1842 Rocket 3.8 16:45:46 10° SSW 16:50:05 75° W 16:54:26 10° N
Sich 1 4.0 16:47:20 10° NNE 16:51:05 27° ENE 16:54:47 10° SE
Aureole 2 Rocket 3.0 16:52:09 10° NNW 16:54:49 47° WSW 16:57:35 10° S
Cosmos 405 Rocket 2.7 16:51:38 10° N 16:55:31 67° E 16:59:26 10° SSE
Cosmos 2154 Rocket 4.0 16:52:31 10° N 16:58:51 69° E 17:05:10 10° SSE
YAOGAN 6 2.9 16:55:23 10° S 16:59:02 71° WSW 17:02:41 10° NNW
Cosmos 1805 Rocket 3.9 16:55:18 10° N 16:59:35 43° ENE 17:03:48 10° SSE
Cosmos 1610 Rocket 4.5 16:57:32 10° N 17:03:55 76° E 17:10:10 10° SSE
SMAP 3.0 17:00:10 10° SSE 17:04:49 87° E 17:09:31 10° NNW
Radarsat 4.5 17:00:35 10° SSE 17:05:45 77° ENE 17:10:58 10° N
Helios 1A Rocket 4.4 17:03:26 10° ESE 17:05:56 16° ENE 17:08:26 10° NNE
Cosmos 2341 Rocket 4.3 17:00:13 10° N 17:06:09 42° ENE 17:12:06 10° SE
Cosmos 1943 Rocket 3.7 17:03:24 10° N 17:06:32 15° NE 17:07:55 14° ENE
USA 281 3.8 17:00:50 10° ESE 17:06:36 34° NE 17:12:23 10° N
SL-16 R/B 3.4 17:02:27 10° SSE 17:06:44 23° E 17:09:55 14° ENE
Cosmos 1151 Rocket 4.4 17:05:08 10° SE 17:08:10 19° E 17:09:50 15° ENE
ATLAS 5 CENTAUR R/B 4.4 17:11:42 10° NW 17:16:59 33° WSW 17:22:54 10° S
NOSS 0 Rocket 4.0 17:10:55 10° SSW 17:17:10 85° WNW 17:23:27 10° NNE
Feng Yun 1-1 Rocket 4.4 17:12:33 10° SE 17:18:12 54° ENE 17:23:46 10° N
Cosmos 1606 2.9 17:14:41 10° S 17:18:27 50° E 17:22:14 10° NNE
Cosmos 389 Rocket 2.7 17:15:15 10° SSE 17:18:31 43° E 17:21:16 14° NNE
CREW DRAGON DEMO-1 DEB 4.4 17:17:32 10° NW 17:19:52 20° NNE 17:20:29 19° NNE
CZ-2C R/B 3.8 17:15:43 10° ESE 17:20:00 27° ENE 17:24:07 10° N
Cosmos 2333 Rocket 3.7 17:15:26 10° WSW 17:20:33 33° NW 17:25:40 10° N
Cosmos 1867 4.0 17:19:11 10° S 17:24:12 41° ESE 17:27:33 20° NE
COSMOS 2428 4.0 17:20:24 10° SW 17:25:44 38° WNW 17:31:05 10° NNE
H-2A R/B 3.3 17:21:59 10° N 17:25:53 40° WNW 17:29:50 10° SW
SKYMED 2 3.8 17:22:50 10° NNE 17:27:02 46° E 17:31:12 10° S
Cosmos 1818 3.6 17:27:31 10° NW 17:33:02 88° WSW 17:38:29 10° SSE
Lacrosse 5 rocket 2.7 17:30:54 10° SSE 17:33:15 18° SE 17:33:15 18° SE
SL-8 Rocket 4.1 17:28:05 10° N 17:34:09 52° ENE 17:40:14 10° SSE
Cosmos 2278 Rocket 2.7 17:30:37 10° NNW 17:36:14 65° WSW 17:41:50 10° S
Cosmos 2181 Rocket 4.1 17:30:05 10° SSE 17:36:18 54° E 17:42:31 10° NNE
Cosmos 1633 Rocket 3.3 17:33:06 10° N 17:37:17 42° ENE 17:41:25 10° SSE
CZ-4 R/B 2.0 17:37:52 31° ENE 17:37:52 31° ENE 17:41:03 10° N
USA 215 3.3 17:32:16 16° NE 17:37:39 78° NW 17:44:10 10° WSW
SAR-Lupe-4 3.4 17:40:58 24° NNE 17:43:01 67° ESE 17:46:35 10° S
Meteor 1-25 Rocket 4.3 17:38:12 10° N 17:43:40 52° ENE 17:49:10 10° SSE
CZ-2D R/B 3.2 17:41:20 10° SSE 17:45:04 56° ENE 17:48:50 10° N
BREEZE-M DEB (TANK) 2.2 17:46:39 10° WSW 17:48:48 52° WNW 17:48:48 52° WNW
IRS-1C Rocket 4.0 17:45:14 10° SSE 17:50:30 78° ENE 17:55:48 10° NNW
Cosmos 1125 Rocket 4.0 17:46:11 10° NNW 17:51:19 62° WSW 17:56:26 10° S
Abrixas rocket 2.5 17:48:43 10° WNW 17:51:24 47° SSW 17:51:40 45° S
Cosmos 1939 Rocket 2.8 17:48:05 10° S 17:51:56 81° W 17:55:50 10° NNW
Cosmos 1356 3.5 17:49:26 10° NNW 17:52:52 77° W 17:56:15 10° S
Cosmos 1689 Rocket 2.8 17:53:49 41° S 17:53:49 41° S 17:55:53 10° S
DEBRIS 4.4 17:38:08 10° W 17:54:07 54° N 17:56:23 32° NE
ERS-2 3.0 17:51:09 10° N 17:54:42 49° WNW 17:58:14 10° SSW
Cosmos 44 4.0 17:49:55 10° NNW 17:54:49 37° NE 17:55:25 36° ENE
Cosmos 2219 Rocket 4.3 17:51:43 10° W 17:55:55 21° NW 18:00:09 10° N
ISS -3.0 17:55:33 10° W 17:58:47 41° NNW 17:59:04 40° N
SAR-Lupe-1 4.1 17:58:34 31° N 18:00:12 78° WNW 18:03:46 10° SSW
CZ-4B R/B 3.2 18:00:05 10° N 18:02:44 27° WNW 18:05:24 10° SW
Cosmos 2237 Rocket 3.1 17:57:56 10° SW 18:03:21 47° WNW 18:08:38 11° NNE
YAOGAN 1 2.6 18:03:52 54° ENE 18:03:52 54° ENE 18:07:51 10° N
Okean-O 2.4 18:04:51 10° SSE 18:09:16 77° ENE 18:13:42 10° N
USA 267 3.1 18:05:49 27° ESE 18:09:39 80° NE 18:16:11 10° NW
COSMO-SKYMED 1 3.3 18:10:59 11° N 18:15:06 53° WNW 18:19:18 10° SSW
SL-24 R/B 4.3 18:13:03 22° N 18:15:37 61° WNW 18:19:20 10° SSW
USA 81 4.2 18:12:11 10° N 18:17:28 73° W 18:22:43 10° S
Cosmos 2218 Rocket 3.9 18:11:43 10° N 18:17:54 87° W 18:24:03 10° S
CSL-04 Rocket 3.9 18:18:45 49° NE 18:18:45 49° NE 18:23:10 10° N
Cosmos 2369 Rocket 3.5 18:13:41 10° N 18:16:39 24° NNE 18:16:39 24° NNE
H-2A R/B 2.0 18:23:36 63° ESE 18:24:08 68° ENE 18:29:22 10° N
Cosmos 2366 rocket 4.1 18:24:10 10° NNW 18:30:22 73° W 18:36:28 10° S
BREEZE-M DEB (TANK) 4.4 18:27:55 10° SSW 18:29:06 16° SSW 18:29:06 16° SSW
Cosmos 773 Rocket 3.9 18:31:16 10° SSW 18:36:31 87° WNW 18:36:41 84° N
Meteor 1-14 Rocket 4.2 18:30:42 10° N 18:36:38 79° E 18:38:09 53° SSE
Helios 1A Rocket 3.9 18:36:53 10° S 18:40:44 45° W 18:44:38 10° NNW
Cosmos 2297 3.9 18:36:38 10° NNW 18:42:18 71° WSW 18:44:22 40° S
Cosmos 1151 Rocket 4.4 18:41:27 10° SW 18:45:26 36° WNW 18:46:45 29° NW
SL-16 R/B 2.8 18:44:52 10° SW 18:50:24 55° WNW 18:51:51 43° NNW
USA 281 3.9 18:44:29 10° S 18:50:51 52° WSW 18:57:15 10° NNW
Cosmos 1943 Rocket 2.7 18:45:37 10° NNW 18:49:30 47° NNW 18:49:30 47° NNW
ARGOS 4.5 18:57:16 30° NNW 18:57:16 30° NNW 18:59:53 10° NNW
Cosmos 489 Rocket 4.4 18:48:21 10° SSW 18:54:17 83° SW 18:54:17 83° SW
MOS 1 Rocket 4.2 18:53:31 33° NNW 18:55:44 54° WNW 19:01:01 10° SSW
CZ-2C R/B 4.3 18:54:51 10° SSW 18:59:43 39° W 19:04:23 10° NNW
Lacrosse 5 rocket 4.2 19:08:41 10° WSW 19:08:54 11° WSW 19:08:54 11° WSW
CZ-4 R/B 4.0 19:13:54 17° WNW 19:13:54 17° WNW 19:15:32 10° NW
USA 215 4.3 19:19:37 34° N 19:20:05 35° NNW 19:25:51 10° W
